Location: Unspecified
(40.7945°N, 111.1337°W)
Time: 12:34:40
(UTC-06:00)

Tiros 1 - Visible Passes

Search period start: 17 June 2019 00:00
Search period end: 27 June 2019 00:00
Orbit: 631 x 664 km, 48.4° (Epoch: 17 June)

Date Brightness Start Highest point End Pass type
(mag) Time Alt. Az. Time Alt. Az. Time Alt. Az.
17 Jun 9.7 01:14:15 10° E 01:14:15 10° E 01:14:16 10° E visible
17 Jun 7.0 02:51:53 64° WSW 02:52:35 84° NNW 02:57:14 10° ENE visible
17 Jun 8.5 04:30:57 10° WNW 04:35:12 35° N 04:39:27 10° ENE visible
18 Jun 8.6 01:38:39 27° E 01:38:39 27° E 01:41:01 10° ENE visible
18 Jun 7.8 03:16:17 24° W 03:18:48 50° NNW 03:23:18 10° NE visible
18 Jun 8.8 04:57:33 10° WNW 05:01:42 31° N 05:05:49 10° ENE visible
19 Jun 7.1 02:02:58 76° ENE 02:02:58 76° ENE 02:07:15 10° ENE visible
19 Jun 8.5 03:40:54 10° WNW 03:45:11 36° NNW 03:49:27 10° NE visible
20 Jun 9.0 00:49:34 19° E 00:49:34 19° E 00:51:01 10° ENE visible
20 Jun 7.8 02:27:10 35° WNW 02:28:48 52° NNW 02:33:20 10° NE visible
20 Jun 8.8 04:07:31 10° WNW 04:11:40 31° N 04:15:48 10° ENE visible
21 Jun 7.5 01:13:38 55° ENE 01:13:38 55° ENE 01:17:16 10° ENE visible
21 Jun 8.5 02:51:13 12° WNW 02:55:10 36° NNW 02:59:28 10° NE visible
21 Jun 8.8 04:33:56 10° WNW 04:38:10 34° N 04:42:22 10° ENE visible
21 Jun 9.1 23:59:51 17° E 23:59:51 17° E 00:01:00 10° ENE visible
22 Jun 7.7 01:37:25 39° WNW 01:38:47 55° NNW 01:43:21 10° NE visible
22 Jun 8.9 03:17:28 10° WNW 03:21:38 31° N 03:25:47 10° ENE visible
22 Jun 8.3 05:00:08 10° NW 05:04:35 44° NNE 05:09:00 10° E visible
23 Jun 7.1 00:23:11 68° E 00:23:11 68° E 00:27:17 10° ENE visible
23 Jun 8.5 02:00:47 10° W 02:05:09 38° NNW 02:09:29 10° NE visible
23 Jun 8.8 03:43:55 10° WNW 03:48:09 33° N 03:52:20 10° ENE visible
23 Jun 7.7 23:07:14 35° SE 23:07:14 35° SE 23:10:58 10° ENE visible
24 Jun 7.6 00:44:23 11° WSW 00:48:47 58° NNW 00:53:23 10° ENE visible
24 Jun 8.9 02:27:25 10° WNW 02:31:37 32° N 02:35:46 10° ENE visible
24 Jun 8.4 04:10:08 10° NW 04:14:34 43° NNE 04:18:58 10° E visible
24 Jun 8.7 21:48:21 10° SSE 21:51:01 15° SE 21:53:42 10° E visible
24 Jun 7.0 23:27:56 10° SW 23:32:38 75° SSE 23:37:18 10° ENE visible
25 Jun 8.5 01:10:43 10° W 01:15:08 39° NNW 01:19:29 10° NE visible
25 Jun 8.8 02:53:53 10° WNW 02:58:07 33° N 03:02:18 10° ENE visible
25 Jun 7.5 04:36:13 10° WNW 04:40:51 68° NNE 04:45:26 10° ESE visible
25 Jun 7.7 22:12:30 10° SSW 22:16:44 33° SE 22:20:57 10° ENE visible
25 Jun 7.6 23:54:07 10° WSW 23:58:47 61° NNW 00:03:24 10° ENE visible
26 Jun 8.9 01:37:22 10° WNW 01:41:35 32° N 01:45:46 10° ENE visible
26 Jun 8.4 03:20:08 10° NW 03:24:33 41° NNE 03:28:56 10° E visible
26 Jun 7.1 05:02:21 10° WNW 05:06:57 64° SW 05:11:30 10° SE visible
26 Jun 7.0 22:37:57 10° SW 22:42:39 70° SE 22:47:19 10° ENE visible
